Regional Weather Roundup
Issued by NWS Glasgow, MT

Home | Current Version | Previous Version | Text Only | Print | Product List | Glossary On
Versions: 1 2 3 4 5 6 7 8 9 10 11 12 13 14 15 16 17 18 19 20 21 22 23 24 25 26 27
000
ASUS45 KGGW 191015
RWRGGW
HOURLY REGIONAL WEATHER ROUNDUP FOR NORTHEAST MONTANA
NATIONAL WEATHER SERVICE GLASGOW MONTANA
400 AM MDT THU APR 19 2018

NOTE: "FAIR" INDICATES FEW OR NO CLOUDS BELOW 12,000 FEET WITH NO
SIGNIFICANT WEATHER AND/OR OBSTRUCTIONS TO VISISBILITY.

NORTHEAST MONTANA


CITY           SKY/WX    TMP DP  RH WIND       PRES   REMARKS
GLASGOW        FOG       33  32  96 E17       30.30R VSB 3/4
PLENTYWOOD       N/A     30  30 100 SE3         N/A
WOLF POINT     FOG       33  32  96 E10       30.35  VSB 1/2
JORDAN           N/A     33  30  88 E5        30.25S
WINNETT          N/A     37  32  82 NW2         N/A
SIDNEY         FOG       33  32  96 E6        30.35S VSB 1/2
GLENDIVE       MIX PCPN  31  31 100 NE10      30.31S VSB 1/4
MALTA            N/A     36  35  96 NE3G12      N/A

FORT PECK REPORTS


CITY           SKY/WX    TMP DP  RH WIND       PRES   REMARKS
FORT PECK        N/A     32  32 100 NE12G20     N/A
THE PINES        N/A     34  32  92 E5          N/A

SOUTHEAST MONTANA


CITY           SKY/WX    TMP DP  RH WIND       PRES   REMARKS
BILLINGS       FAIR      36  24  62 N8        30.13F
MILES CITY     FAIR      34  31  88 NE7       30.26
BAKER          FAIR      28  28 100 SE7       30.30R
LIVINGSTON     FAIR      32  25  75 W3        30.11F

CENTRAL MONTANA


CITY           SKY/WX    TMP DP  RH WIND       PRES   REMARKS
HAVRE          FAIR      35  32  88 E13       30.18
LEWISTOWN      FAIR      38  23  55 E13       30.15S
GREAT FALLS    FAIR      31  24  75 W6        30.13R
CUT BANK       FAIR      28  25  88 NE6       30.15S
HELENA         FAIR      35  23  61 W8        30.10F
BUTTE          FAIR      30  21  69 CALM      30.09R
BOZEMAN        FAIR      31  24  75 E5        30.09

WESTERN MONTANA


CITY           SKY/WX    TMP DP  RH WIND       PRES   REMARKS
MISSOULA       FAIR      32  23  69 CALM      30.10R
KALISPELL      NOT AVBL

NORTH DAKOTA


CITY           SKY/WX    TMP DP  RH WIND       PRES   REMARKS
WILLISTON      CLOUDY    33  32  96 NE7       30.37R FOG
DICKINSON      SNOW      26  25  96 E6        30.31S VSB<1/4
MINOT          CLOUDY    36  33  89 W3        30.35R FOG
BISMARCK       FAIR      24  23  96 CALM      30.38R

SOUTHERN SASKATCHEWAN


CITY           SKY/WX    TMP DP  RH WIND       PRES   REMARKS
REGINA         MOCLDY    23  21  93 E5        30.35R FOG
MOOSE JAW      CLEAR     28  25  86 SE5       30.34
ESTEVAN        FOG       30  30 100 W5        30.37R VSB 1/8
SWIFT CURRENT  CLEAR     30  27  86 S10       30.26S





USA.gov is the U.S. government's official web portal to all federal, state and local government web resources and services.